CZ-4C DEB, 40343

Orbit data source: Space-Track

CZ-4C DEB, 40343 is space debris in LEO originally from a launch on Wed, 10 Dec 2014 UTC launched from the Jiuquan Satellite Launch Center, China (JSC). Debris objects in space refer to the collection of defunct objects orbiting the Earth. Examples of debris include non-operational satellites, rocket bodies, and fragments generated from explosions, collisions, or faulty payload assembly.

Loading next visibility...
Identifier
40343, 2014-080F
Orbit
LEO
Country
Flag of CNCN / PRC
Related business
Manufacturer
CAST
Mission
Spacecraft
Bus & Motor
Unknown
Mass
Unknown
Launch date (UTC)
2014-12-10 (11 years ago)
Launch vehicle
Unknown
Launch site
Jiuquan Satellite Launch Center, China (JSC)
Object type
Payload
Rocket body
Debris
Shape & HBR
Unknown shape, 3.3 m
Radar Cross Section
Large (>1 m²)

Expand to show TLE details & history
Last TLE update: 21 hours ago

TLE from 21 hours ago
0 CZ-4C DEB
1 40343U 14080F   26061.92545079  .00000009  00000-0  11239-3 0  9991
2 40343  63.3865 239.4865 0370418  10.3535 350.4856 13.44881993551130
Epoch: 2026-03-02T22:12Z
TLE epoch observation values (Epoch: 2026-03-02T22:12:38.948Z)
Latitude
-0.00001°
Longitude
105.61234°
Altitude
820.315 km
Speed
7.578 km/s
True Right ascension
15h 57m 56s
True Declination
0° 00' 00"
Sunlit
Object was in daylight at epoch
Visualization orbit readout
Latitude
Unknown
Longitude
Unknown
Altitude
Unknown
Speed
Unknown
Apparent Right ascension
Unknown
Apparent Declination
Unknown
Sunlit
N/A
Visualization observer readout
Local Sidereal Time
22:57:19
Azimuth
Unknown
Elevation
Unknown
Doppler factor
Unknown
Orbital elements
Apogee altitude
1,366.61 km
Perigee altitude
813.345 km
Semi-major axis
7,468.114 km
Eccentricity
0.03704
Inclination
63.3865°
RAAN
239.4865°
Arg. of periapsis
10.3535°
True anomaly
349.75049°
Mean anomaly
350.4856°
Eccentric anomaly
350.12149°
Mean motion
3.363 °/min
Orbital period
107.05 mins
BSTAR
0.00011239
Loading maneuver chart data...
Computing Atmospheric mass density...
Loading historical data...
Loading historical data...
Loading historical data...
Loading historical data...
Loading historical data...
Loading historical data...
Loading historical data...

Documentation

Showing up to 5 results
|